Location: Newark
(55.4390°N, 25.0170°E)
Time: 17:32:31
(UTC+00:00)

Envisat - Pass Details

Date: 10 March 2021
Orbit: 764 x 766 km, 98.1° (Epoch: 17 April)

Event Time Altitude Azimuth Distance (km) Brightness Sun altitude
Rises 16:59:02 0° 231° (SW) 3,229 7.0 -7.2°
Reaches altitude 10° 17:04:13 10° 276° (W) 2,312 7.3 -8.0°
Maximum altitude 17:04:35 10° 281° (W) 2,307 7.2 -8.0°
Drops below altitude 10° 17:04:58 10° 285° (WNW) 2,313 7.1 -8.1°
Sets 17:10:12 0° 331° (NNW) 3,248 6.8 -8.8°
